User: anonymous   Login
Location: Darlington Observatory
(36.4817°N, 105.8156°W)
Time: 04:47:43
(UTC-07:00)
Language:

NOSS 3-3 (A) - Orbit

View from above orbital plane
View from above orbital plane
View from above satellite
View from above satellite

Ground track
Ground track

The orbit data is extracted from the following two-line orbital elements,

1 28537U 05004A   17053.17584882 0.00000000  00000-0  00000-0 0    06
2 28537  63.4254 121.5459 0262000 358.3379   1.6621 13.40727660    08
Epoch (UTC): 22 February 2017 04:13:13
Eccentricity: 0.0262000
inclination: 63.4254°
perigee height: 910 km
apogee height: 1302 km
right ascension of ascending node: 121.5459°
argument of perigee: 358.3379°
revolutions per day: 13.40727660
mean anomaly at epoch: 1.6621°
orbit number at epoch: 0

The dashed part of the orbit path shows where the satellite is in the earth's shadow,  

DLR